Time,TemperatureF,DewpointF,PressureIn,WindDirection,WindDirectionDegrees,WindSpeedMPH,WindSpeedGustMPH,Humidity,HourlyPrecipIn,Conditions,Clouds,dailyrainin,SoftwareType,DateUTC
2013-01-09 00:04:00,37.1,33.0,29.89,South,178,8.9,15.0,85,0.00,FEW,,0.00,WeatherDisplay:10.37,2013-01-09 06:04:00,
2013-01-09 00:09:00,37.1,33.0,29.89,SSE,157,7.8,12.7,85,0.00,FEW,,0.00,WeatherDisplay:10.37,2013-01-09 06:09:00,
2013-01-09 00:14:00,36.8,32.7,29.89,SSE,160,8.6,11.5,85,0.00,FEW,,0.00,WeatherDisplay:10.37,2013-01-09 06:14:00,
2013-01-09 00:19:00,36.9,33.1,29.89,South,172,6.9,11.6,86,0.00,FEW,,0.00,WeatherDisplay:10.37,2013-01-09 06:19:00,
2013-01-09 00:24:00,37.1,33.0,29.89,SSW,200,9.4,12.7,85,0.00,FEW,,0.00,WeatherDisplay:10.37,2013-01-09 06:24:00,
2013-01-09 00:29:00,37.1,33.0,29.89,SW,227,8.7,15.0,85,0.00,FEW,,0.00,WeatherDisplay:10.37,2013-01-09 06:29:00,
2013-01-09 00:34:00,37.2,33.1,29.89,WSW,241,10.4,12.7,85,0.00,FEW,,0.00,WeatherDisplay:10.37,2013-01-09 06:34:00,
2013-01-09 00:39:00,37.1,33.0,29.89,SSW,196,7.5,17.3,85,0.00,FEW,,0.00,WeatherDisplay:10.37,2013-01-09 06:39:00,
2013-01-09 00:44:00,37.3,33.2,29.89,SW,215,6.2,9.2,85,0.00,FEW,,0.00,WeatherDisplay:10.37,2013-01-09 06:44:00,
2013-01-09 00:49:00,37.1,33.3,29.89,South,184,6.2,9.7,86,0.00,FEW,,0.00,WeatherDisplay:10.37,2013-01-09 06:49:00,
2013-01-09 00:54:00,37.1,33.3,29.89,WSW,237,5.0,10.4,86,0.00,FEW,,0.00,WeatherDisplay:10.37,2013-01-09 06:54:00,
2013-01-09 00:59:00,37.1,33.3,29.89,South,182,6.3,10.4,86,0.00,FEW,,0.00,WeatherDisplay:10.37,2013-01-09 06:59:00,
2013-01-09 01:04:00,37.1,33.6,29.90,SW,217,6.8,12.7,87,0.00,CLR,,0.00,WeatherDisplay:10.37,2013-01-09 07:04:00,
2013-01-09 01:09:00,36.9,33.4,29.90,SSW,213,6.7,12.7,87,0.00,CLR,,0.00,WeatherDisplay:10.37,2013-01-09 07:09:00,
2013-01-09 01:14:00,37.0,33.5,29.91,WSW,253,3.2,8.3,87,0.00,CLR,,0.00,WeatherDisplay:10.37,2013-01-09 07:14:00,
2013-01-09 01:19:00,36.7,33.5,29.91,SSW,209,7.9,11.5,88,0.00,CLR,,0.00,WeatherDisplay:10.37,2013-01-09 07:19:00,
2013-01-09 01:24:00,36.6,33.4,29.91,West,278,6.2,10.4,88,0.00,CLR,,0.00,WeatherDisplay:10.37,2013-01-09 07:24:00,
2013-01-09 01:29:00,36.4,33.5,29.91,West,274,7.6,11.5,89,0.00,CLR,,0.00,WeatherDisplay:10.37,2013-01-09 07:29:00,
2013-01-09 01:34:00,36.1,33.2,29.91,South,172,6.3,8.1,89,0.00,CLR,,0.00,WeatherDisplay:10.37,2013-01-09 07:34:00,
2013-01-09 01:39:00,36.0,33.1,29.92,WNW,284,4.6,9.2,89,0.00,CLR,,0.00,WeatherDisplay:10.37,2013-01-09 07:39:00,
2013-01-09 01:44:00,35.7,33.1,29.92,South,189,8.7,12.6,90,0.00,CLR,,0.00,WeatherDisplay:10.37,2013-01-09 07:44:00,
2013-01-09 01:49:00,35.8,33.2,29.92,South,186,4.9,10.4,90,0.00,CLR,,0.00,WeatherDisplay:10.37,2013-01-09 07:49:00,
2013-01-09 01:54:00,35.5,32.9,29.92,West,271,6.0,11.1,90,0.00,CLR,,0.00,WeatherDisplay:10.37,2013-01-09 07:54:00,
2013-01-09 01:59:00,35.3,32.9,29.93,West,265,4.6,10.4,91,0.00,CLR,,0.00,WeatherDisplay:10.37,2013-01-09 07:59:00,
2013-01-09 02:04:00,34.9,32.5,29.93,WSW,247,6.7,11.5,91,0.00,SCT,,0.00,WeatherDisplay:10.37,2013-01-09 08:04:00,
2013-01-09 02:09:00,34.8,32.7,29.93,SW,215,6.0,13.8,92,0.00,SCT,,0.00,WeatherDisplay:10.37,2013-01-09 08:09:00,
2013-01-09 02:14:00,34.6,32.5,29.93,West,268,5.9,10.4,92,0.00,SCT,,0.00,WeatherDisplay:10.37,2013-01-09 08:14:00,
2013-01-09 02:19:00,34.4,32.3,29.94,WSW,251,4.5,8.1,92,0.00,SCT,,0.00,WeatherDisplay:10.37,2013-01-09 08:19:00,
2013-01-09 02:24:00,34.0,32.2,29.94,SW,222,5.1,8.1,93,0.00,SCT,,0.00,WeatherDisplay:10.37,2013-01-09 08:24:00,
2013-01-09 02:29:00,34.1,32.3,29.95,South,179,7.2,8.2,93,0.00,SCT,,0.00,WeatherDisplay:10.37,2013-01-09 08:29:00,
2013-01-09 02:34:00,33.9,32.4,29.95,SSW,192,4.6,10.4,94,0.00,SCT,,0.00,WeatherDisplay:10.37,2013-01-09 08:34:00,
2013-01-09 02:39:00,33.7,32.2,29.95,West,274,6.6,9.2,94,0.00,SCT,,0.00,WeatherDisplay:10.37,2013-01-09 08:39:00,
2013-01-09 02:44:00,33.5,32.2,29.95,SW,220,9.3,11.1,95,0.00,SCT,,0.00,WeatherDisplay:10.37,2013-01-09 08:44:00,
2013-01-09 02:49:00,33.3,32.0,29.95,SW,219,7.0,10.5,95,0.00,SCT,,0.00,WeatherDisplay:10.37,2013-01-09 08:49:00,
2013-01-09 02:54:00,33.3,32.0,29.95,West,263,4.5,10.4,95,0.00,SCT,,0.00,WeatherDisplay:10.37,2013-01-09 08:54:00,
2013-01-09 02:59:00,32.9,31.9,29.95,WSW,257,5.8,10.4,96,0.00,SCT,,0.00,WeatherDisplay:10.37,2013-01-09 08:59:00,
2013-01-09 03:04:00,32.7,31.7,29.95,WSW,246,4.2,12.7,96,0.00,CLR,,0.00,WeatherDisplay:10.37,2013-01-09 09:04:00,
2013-01-09 03:09:00,32.3,31.5,29.96,South,186,9.0,10.4,97,0.00,CLR,,0.00,WeatherDisplay:10.37,2013-01-09 09:09:00,
2013-01-09 03:14:00,31.9,31.1,29.97,West,264,5.2,12.7,97,0.00,CLR,,0.00,WeatherDisplay:10.37,2013-01-09 09:14:00,
2013-01-09 03:19:00,31.8,31.3,29.96,SW,220,4.6,9.2,98,0.00,CLR,,0.00,WeatherDisplay:10.37,2013-01-09 09:19:00,
2013-01-09 03:24:00,31.6,31.1,29.96,SSW,208,4.5,9.2,98,0.00,CLR,,0.00,WeatherDisplay:10.37,2013-01-09 09:24:00,
2013-01-09 03:29:00,31.5,31.0,29.97,WSW,258,3.7,5.8,98,0.00,CLR,,0.00,WeatherDisplay:10.37,2013-01-09 09:29:00,
2013-01-09 03:34:00,31.4,31.2,29.97,SSW,209,5.9,8.1,99,0.00,CLR,,0.00,WeatherDisplay:10.37,2013-01-09 09:34:00,
2013-01-09 03:39:00,31.3,31.1,29.96,SSW,206,4.6,9.2,99,0.00,CLR,,0.00,WeatherDisplay:10.37,2013-01-09 09:39:00,
2013-01-09 03:44:00,31.4,31.2,29.96,South,191,4.1,8.1,99,0.00,CLR,,0.00,WeatherDisplay:10.37,2013-01-09 09:44:00,
2013-01-09 03:49:00,31.2,31.0,29.97,South,191,3.4,6.9,99,0.00,CLR,,0.00,WeatherDisplay:10.37,2013-01-09 09:49:00,
2013-01-09 03:54:00,31.0,30.8,29.98,SSW,196,4.5,8.1,99,0.00,CLR,,0.00,WeatherDisplay:10.37,2013-01-09 09:54:00,
2013-01-09 03:59:00,30.7,30.5,29.99,SW,222,3.4,8.1,99,0.00,CLR,,0.00,WeatherDisplay:10.37,2013-01-09 09:59:00,
2013-01-09 04:04:00,30.6,30.4,29.99,SW,229,4.1,9.2,99,0.00,CLR,,0.00,WeatherDisplay:10.37,2013-01-09 10:04:00,
2013-01-09 04:09:00,30.4,30.4,29.99,SSW,193,4.1,8.1,100,0.00,CLR,,0.00,WeatherDisplay:10.37,2013-01-09 10:09:00,
2013-01-09 04:14:00,30.3,30.3,29.99,WSW,254,5.5,6.9,100,0.00,CLR,,0.00,WeatherDisplay:10.37,2013-01-09 10:14:00,
2013-01-09 04:19:00,30.4,30.4,30.00,WNW,285,5.8,6.9,100,0.00,CLR,,0.00,WeatherDisplay:10.37,2013-01-09 10:19:00,
2013-01-09 04:24:00,30.3,30.3,30.00,WSW,247,4.0,8.3,100,0.00,CLR,,0.00,WeatherDisplay:10.37,2013-01-09 10:24:00,
2013-01-09 04:29:00,30.2,30.2,30.00,WSW,247,2.9,9.2,100,0.00,CLR,,0.00,WeatherDisplay:10.37,2013-01-09 10:29:00,
2013-01-09 04:34:00,30.1,30.1,30.00,WSW,246,6.4,7.0,100,0.00,CLR,,0.00,WeatherDisplay:10.37,2013-01-09 10:34:00,
2013-01-09 04:39:00,30.2,30.2,30.01,South,188,5.0,9.2,100,0.00,CLR,,0.00,WeatherDisplay:10.37,2013-01-09 10:39:00,
2013-01-09 04:44:00,30.3,30.3,30.01,South,189,4.5,5.2,100,0.00,CLR,,0.00,WeatherDisplay:10.37,2013-01-09 10:44:00,
2013-01-09 04:49:00,30.2,30.0,30.01,South,186,3.6,8.1,99,0.00,CLR,,0.00,WeatherDisplay:10.37,2013-01-09 10:49:00,
2013-01-09 04:54:00,30.3,30.1,30.01,South,179,3.2,6.2,99,0.00,CLR,,0.00,WeatherDisplay:10.37,2013-01-09 10:54:00,
2013-01-09 04:59:00,30.2,30.0,30.01,WSW,237,4.8,6.9,99,0.00,CLR,,0.00,WeatherDisplay:10.37,2013-01-09 10:59:00,
2013-01-09 05:04:00,30.4,30.2,30.02,South,186,3.7,6.9,99,0.00,CLR,,0.00,WeatherDisplay:10.37,2013-01-09 11:04:00,
2013-01-09 05:09:00,30.4,30.2,30.02,SW,229,6.4,10.4,99,0.00,CLR,,0.00,WeatherDisplay:10.37,2013-01-09 11:09:00,
2013-01-09 05:14:00,30.5,30.0,30.02,SW,220,5.8,9.2,98,0.00,CLR,,0.00,WeatherDisplay:10.37,2013-01-09 11:14:00,
2013-01-09 05:19:00,30.6,30.1,30.02,SSW,206,4.0,5.8,98,0.00,CLR,,0.00,WeatherDisplay:10.37,2013-01-09 11:19:00,
2013-01-09 05:24:00,30.4,29.9,30.02,SW,236,5.8,9.5,98,0.00,CLR,,0.00,WeatherDisplay:10.37,2013-01-09 11:24:00,
2013-01-09 05:29:00,30.5,30.0,30.03,West,280,4.6,9.2,98,0.00,CLR,,0.00,WeatherDisplay:10.37,2013-01-09 11:29:00,
2013-01-09 05:34:00,30.5,30.0,30.02,SSW,205,5.2,10.4,98,0.00,CLR,,0.00,WeatherDisplay:10.37,2013-01-09 11:34:00,
2013-01-09 05:39:00,30.3,29.6,30.02,WSW,239,5.5,10.4,97,0.00,CLR,,0.00,WeatherDisplay:10.37,2013-01-09 11:39:00,
2013-01-09 05:44:00,30.4,29.7,30.03,SSW,192,6.3,6.9,97,0.00,CLR,,0.00,WeatherDisplay:10.37,2013-01-09 11:44:00,
2013-01-09 05:49:00,30.4,29.7,30.03,WSW,239,5.0,9.2,97,0.00,CLR,,0.00,WeatherDisplay:10.37,2013-01-09 11:49:00,
2013-01-09 05:54:00,30.1,29.1,30.03,South,186,5.4,6.9,96,0.00,CLR,,0.00,WeatherDisplay:10.37,2013-01-09 11:54:00,
2013-01-09 05:59:00,29.8,29.1,30.03,SSW,208,5.8,9.0,97,0.00,CLR,,0.00,WeatherDisplay:10.37,2013-01-09 11:59:00,
2013-01-09 06:04:00,29.6,28.9,30.04,WSW,250,6.3,8.1,97,0.00,CLR,,0.00,WeatherDisplay:10.37,2013-01-09 12:04:00,
2013-01-09 06:09:00,29.5,28.8,30.04,West,260,4.4,8.1,97,0.00,CLR,,0.00,WeatherDisplay:10.37,2013-01-09 12:09:00,
2013-01-09 06:14:00,29.5,29.0,30.05,SW,229,6.9,12.7,98,0.00,CLR,,0.00,WeatherDisplay:10.37,2013-01-09 12:14:00,
2013-01-09 06:19:00,29.6,29.1,30.05,SW,234,6.1,10.4,98,0.00,CLR,,0.00,WeatherDisplay:10.37,2013-01-09 12:19:00,
2013-01-09 06:24:00,29.8,29.1,30.06,SW,216,6.1,13.8,97,0.00,CLR,,0.00,WeatherDisplay:10.37,2013-01-09 12:24:00,
2013-01-09 06:29:00,29.9,28.9,30.06,West,274,6.0,13.8,96,0.00,CLR,,0.00,WeatherDisplay:10.37,2013-01-09 12:29:00,
2013-01-09 06:34:00,30.0,29.0,30.06,South,189,7.5,11.5,96,0.00,CLR,,0.00,WeatherDisplay:10.37,2013-01-09 12:34:00,
2013-01-09 06:39:00,30.0,29.0,30.06,SSW,195,5.5,10.4,96,0.00,CLR,,0.00,WeatherDisplay:10.37,2013-01-09 12:39:00,
2013-01-09 06:44:00,29.9,28.9,30.07,SSW,198,4.1,8.1,96,0.00,CLR,,0.00,WeatherDisplay:10.37,2013-01-09 12:44:00,
2013-01-09 06:49:00,29.9,28.9,30.07,SW,229,6.0,9.2,96,0.00,CLR,,0.00,WeatherDisplay:10.37,2013-01-09 12:49:00,
2013-01-09 06:54:00,29.9,28.9,30.07,South,178,3.3,8.1,96,0.00,CLR,,0.00,WeatherDisplay:10.37,2013-01-09 12:54:00,
2013-01-09 06:59:00,30.0,29.0,30.07,South,191,4.3,9.2,96,0.00,CLR,,0.00,WeatherDisplay:10.37,2013-01-09 12:59:00,
2013-01-09 07:04:00,29.7,28.7,30.07,SSW,198,4.8,10.4,96,0.00,CLR,,0.00,WeatherDisplay:10.37,2013-01-09 13:04:00,
2013-01-09 07:09:00,29.8,28.8,30.07,WSW,244,6.8,8.1,96,0.00,CLR,,0.00,WeatherDisplay:10.37,2013-01-09 13:09:00,
2013-01-09 07:14:00,29.8,28.8,30.08,SSW,208,4.8,8.1,96,0.00,CLR,,0.00,WeatherDisplay:10.37,2013-01-09 13:14:00,
2013-01-09 07:19:00,29.8,28.8,30.08,SW,226,5.5,10.4,96,0.00,CLR,,0.00,WeatherDisplay:10.37,2013-01-09 13:19:00,
2013-01-09 07:24:00,29.8,28.8,30.08,West,271,6.5,10.4,96,0.00,CLR,,0.00,WeatherDisplay:10.37,2013-01-09 13:24:00,
2013-01-09 07:29:00,29.9,28.9,30.08,SSW,203,5.6,10.4,96,0.00,CLR,,0.00,WeatherDisplay:10.37,2013-01-09 13:29:00,
2013-01-09 07:34:00,29.7,28.7,30.08,SW,230,4.3,13.8,96,0.00,CLR,,0.00,WeatherDisplay:10.37,2013-01-09 13:34:00,
2013-01-09 07:39:00,29.8,28.8,30.08,South,181,4.0,8.1,96,0.00,CLR,,0.00,WeatherDisplay:10.37,2013-01-09 13:39:00,
2013-01-09 07:44:00,29.6,28.6,30.08,South,182,4.3,8.1,96,0.00,CLR,,0.00,WeatherDisplay:10.37,2013-01-09 13:44:00,
2013-01-09 07:49:00,29.7,28.7,30.08,SSW,205,4.3,8.1,96,0.00,CLR,,0.00,WeatherDisplay:10.37,2013-01-09 13:49:00,
2013-01-09 07:54:00,29.6,28.6,30.08,South,169,4.5,6.9,96,0.00,CLR,,0.00,WeatherDisplay:10.37,2013-01-09 13:54:00,
2013-01-09 07:59:00,29.8,28.8,30.08,WSW,241,4.7,9.2,96,0.00,CLR,,0.00,WeatherDisplay:10.37,2013-01-09 13:59:00,
2013-01-09 08:04:00,30.1,29.1,30.09,SW,219,3.0,6.9,96,0.00,CLR,,0.00,WeatherDisplay:10.37,2013-01-09 14:04:00,
2013-01-09 08:09:00,30.4,29.1,30.09,West,261,4.3,9.2,95,0.00,CLR,,0.00,WeatherDisplay:10.37,2013-01-09 14:09:00,
2013-01-09 08:14:00,30.8,29.3,30.09,SW,216,5.9,10.4,94,0.00,CLR,,0.00,WeatherDisplay:10.37,2013-01-09 14:14:00,
2013-01-09 08:19:00,31.2,29.4,30.10,SSW,209,6.0,9.2,93,0.00,CLR,,0.00,WeatherDisplay:10.37,2013-01-09 14:19:00,
2013-01-09 08:24:00,31.5,29.4,30.10,SSW,208,7.0,12.7,92,0.00,CLR,,0.00,WeatherDisplay:10.37,2013-01-09 14:24:00,
2013-01-09 08:29:00,31.9,29.6,30.11,SSW,192,5.3,11.5,91,0.00,CLR,,0.00,WeatherDisplay:10.37,2013-01-09 14:29:00,
2013-01-09 08:34:00,32.2,29.6,30.11,SW,232,9.7,13.8,90,0.00,CLR,,0.00,WeatherDisplay:10.37,2013-01-09 14:34:00,
2013-01-09 08:39:00,32.1,29.5,30.11,SSW,200,7.2,17.3,90,0.00,CLR,,0.00,WeatherDisplay:10.37,2013-01-09 14:39:00,
2013-01-09 08:44:00,32.1,29.2,30.11,SSW,202,7.3,11.8,89,0.00,CLR,,0.00,WeatherDisplay:10.37,2013-01-09 14:44:00,
2013-01-09 08:49:00,31.9,29.0,30.11,WSW,250,7.5,10.4,89,0.00,CLR,,0.00,WeatherDisplay:10.37,2013-01-09 14:49:00,
2013-01-09 08:54:00,32.0,29.1,30.11,SW,236,6.9,16.1,89,0.00,CLR,,0.00,WeatherDisplay:10.37,2013-01-09 14:54:00,
2013-01-09 08:59:00,32.3,29.4,30.11,SSW,210,4.5,11.5,89,0.00,CLR,,0.00,WeatherDisplay:10.37,2013-01-09 14:59:00,
2013-01-09 09:04:00,32.7,29.0,30.11,West,268,6.3,10.4,86,0.00,CLR,,0.00,WeatherDisplay:10.37,2013-01-09 15:04:00,
2013-01-09 09:09:00,32.9,28.6,30.11,WSW,250,7.0,11.5,84,0.00,CLR,,0.00,WeatherDisplay:10.37,2013-01-09 15:09:00,
2013-01-09 09:14:00,33.5,28.9,30.11,WSW,253,4.6,10.4,83,0.00,CLR,,0.00,WeatherDisplay:10.37,2013-01-09 15:14:00,
2013-01-09 09:19:00,33.9,28.4,30.12,WNW,289,6.1,12.7,80,0.00,CLR,,0.00,WeatherDisplay:10.37,2013-01-09 15:19:00,
2013-01-09 09:24:00,34.2,27.4,30.13,WSW,244,7.1,15.0,76,0.00,CLR,,0.00,WeatherDisplay:10.37,2013-01-09 15:24:00,
2013-01-09 09:29:00,34.3,26.9,30.13,SSW,202,8.8,15.0,74,0.00,CLR,,0.00,WeatherDisplay:10.37,2013-01-09 15:29:00,
2013-01-09 09:34:00,34.8,27.4,30.14,South,178,5.7,11.5,74,0.00,CLR,,0.00,WeatherDisplay:10.37,2013-01-09 15:34:00,
2013-01-09 09:39:00,34.7,26.9,30.14,WSW,241,7.3,9.2,73,0.00,CLR,,0.00,WeatherDisplay:10.37,2013-01-09 15:39:00,
2013-01-09 09:44:00,34.7,26.6,30.15,SW,230,8.8,16.1,72,0.00,CLR,,0.00,WeatherDisplay:10.37,2013-01-09 15:44:00,
2013-01-09 09:49:00,35.2,27.1,30.15,WSW,244,4.8,16.1,72,0.00,CLR,,0.00,WeatherDisplay:10.37,2013-01-09 15:49:00,
2013-01-09 09:54:00,35.2,26.4,30.15,WNW,284,6.9,9.2,70,0.00,CLR,,0.00,WeatherDisplay:10.37,2013-01-09 15:54:00,
2013-01-09 09:59:00,35.2,26.4,30.14,South,184,6.4,16.1,70,0.00,CLR,,0.00,WeatherDisplay:10.37,2013-01-09 15:59:00,
2013-01-09 10:04:00,35.2,26.0,30.14,WSW,248,6.8,13.8,69,0.00,CLR,,0.00,WeatherDisplay:10.37,2013-01-09 16:04:00,
2013-01-09 10:09:00,35.7,26.5,30.14,West,274,7.0,11.5,69,0.00,CLR,,0.00,WeatherDisplay:10.37,2013-01-09 16:09:00,
2013-01-09 10:14:00,35.7,26.2,30.15,SE,137,6.6,11.5,68,0.00,CLR,,0.00,WeatherDisplay:10.37,2013-01-09 16:14:00,
2013-01-09 10:19:00,35.9,25.6,30.15,West,271,7.9,12.7,66,0.00,CLR,,0.00,WeatherDisplay:10.37,2013-01-09 16:19:00,
2013-01-09 10:24:00,35.9,26.0,30.15,NW,306,7.9,11.5,67,0.00,CLR,,0.00,WeatherDisplay:10.37,2013-01-09 16:24:00,
2013-01-09 10:29:00,35.9,24.9,30.15,West,265,10.1,15.0,64,0.00,CLR,,0.00,WeatherDisplay:10.37,2013-01-09 16:29:00,
2013-01-09 10:34:00,36.2,25.6,30.15,South,179,8.9,11.5,65,0.00,CLR,,0.00,WeatherDisplay:10.37,2013-01-09 16:34:00,
2013-01-09 10:39:00,36.4,25.4,30.15,WNW,296,7.1,15.0,64,0.00,CLR,,0.00,WeatherDisplay:10.37,2013-01-09 16:39:00,
2013-01-09 10:44:00,36.6,25.2,30.14,SW,227,7.9,17.3,63,0.00,CLR,,0.00,WeatherDisplay:10.37,2013-01-09 16:44:00,
2013-01-09 10:49:00,36.7,25.3,30.14,SW,236,7.2,8.1,63,0.00,CLR,,0.00,WeatherDisplay:10.37,2013-01-09 16:49:00,
2013-01-09 10:54:00,36.8,25.0,30.14,West,278,8.0,12.7,62,0.00,CLR,,0.00,WeatherDisplay:10.37,2013-01-09 16:54:00,
2013-01-09 10:59:00,37.0,25.2,30.14,WNW,284,7.9,13.8,62,0.00,CLR,,0.00,WeatherDisplay:10.37,2013-01-09 16:59:00,
2013-01-09 11:04:00,37.2,24.6,30.14,SW,216,7.7,16.1,60,0.00,CLR,,0.00,WeatherDisplay:10.37,2013-01-09 17:04:00,
2013-01-09 11:09:00,37.1,24.9,30.15,SW,229,9.1,18.4,61,0.00,CLR,,0.00,WeatherDisplay:10.37,2013-01-09 17:09:00,
2013-01-09 11:14:00,37.6,25.4,30.15,South,189,6.1,10.4,61,0.00,CLR,,0.00,WeatherDisplay:10.37,2013-01-09 17:14:00,
2013-01-09 11:19:00,37.6,24.6,30.16,SW,234,7.3,20.7,59,0.00,CLR,,0.00,WeatherDisplay:10.37,2013-01-09 17:19:00,
2013-01-09 11:24:00,37.9,25.2,30.16,SW,227,4.7,11.5,60,0.00,CLR,,0.00,WeatherDisplay:10.37,2013-01-09 17:24:00,
2013-01-09 11:29:00,37.9,24.8,30.16,WNW,284,7.0,9.2,59,0.00,CLR,,0.00,WeatherDisplay:10.37,2013-01-09 17:29:00,
2013-01-09 11:34:00,38.0,24.5,30.17,West,280,8.3,15.0,58,0.00,CLR,,0.00,WeatherDisplay:10.37,2013-01-09 17:34:00,
2013-01-09 11:39:00,37.9,24.8,30.17,WNW,288,7.4,15.0,59,0.00,CLR,,0.00,WeatherDisplay:10.37,2013-01-09 17:39:00,
2013-01-09 11:44:00,37.9,24.4,30.17,SW,215,9.2,16.1,58,0.00,CLR,,0.00,WeatherDisplay:10.37,2013-01-09 17:44:00,
2013-01-09 11:49:00,38.2,24.7,30.18,West,274,8.7,11.5,58,0.00,CLR,,0.00,WeatherDisplay:10.37,2013-01-09 17:49:00,
2013-01-09 11:54:00,38.7,25.6,30.18,SE,137,5.9,12.7,59,0.00,CLR,,0.00,WeatherDisplay:10.37,2013-01-09 17:54:00,
2013-01-09 11:59:00,38.5,25.0,30.18,South,176,9.9,18.4,58,0.00,CLR,,0.00,WeatherDisplay:10.37,2013-01-09 17:59:00,
2013-01-09 12:04:00,39.0,25.5,30.19,SW,230,8.0,13.8,58,0.00,CLR,,0.00,WeatherDisplay:10.37,2013-01-09 18:04:00,
2013-01-09 12:09:00,39.0,25.0,30.19,SSW,196,9.4,10.4,57,0.00,CLR,,0.00,WeatherDisplay:10.37,2013-01-09 18:09:00,
2013-01-09 12:14:00,39.3,27.0,30.19,WSW,237,4.7,7.1,61,0.00,CLR,,0.00,WeatherDisplay:10.37,2013-01-09 18:14:00,
2013-01-09 12:19:00,38.6,26.7,30.20,South,191,7.0,19.6,62,0.00,CLR,,0.00,WeatherDisplay:10.37,2013-01-09 18:19:00,
2013-01-09 12:24:00,38.0,26.1,30.21,SSW,212,9.3,18.4,62,0.00,CLR,,0.00,WeatherDisplay:10.37,2013-01-09 18:24:00,
2013-01-09 12:29:00,37.8,26.7,30.19,SW,232,10.3,13.8,64,0.00,CLR,,0.00,WeatherDisplay:10.37,2013-01-09 18:29:00,
2013-01-09 12:34:00,37.8,26.7,30.19,SSW,208,8.6,11.5,64,0.00,CLR,,0.00,WeatherDisplay:10.37,2013-01-09 18:34:00,
2013-01-09 12:39:00,37.5,26.4,30.19,SW,215,12.4,13.8,64,0.00,CLR,,0.00,WeatherDisplay:10.37,2013-01-09 18:39:00,
2013-01-09 12:41:00,37.8,26.7,30.20,South,182,9.6,13.8,64,0.00,CLR,,0.00,WeatherDisplay:10.37,2013-01-09 18:41:00,
2013-01-09 12:42:00,37.9,26.8,30.20,South,191,9.2,12.7,64,0.00,CLR,,0.00,WeatherDisplay:10.37,2013-01-09 18:42:00,
2013-01-09 12:44:00,37.7,26.6,30.20,SW,230,10.1,15.0,64,0.00,CLR,,0.00,WeatherDisplay:10.37,2013-01-09 18:44:00,
2013-01-09 12:45:00,37.9,26.8,30.21,WSW,253,10.1,17.3,64,0.00,CLR,,0.00,WeatherDisplay:10.37,2013-01-09 18:45:00,
2013-01-09 12:48:00,37.7,26.2,30.21,SSW,196,9.6,17.3,63,0.00,CLR,,0.00,WeatherDisplay:10.37,2013-01-09 18:48:00,
2013-01-09 12:53:00,37.9,26.8,30.22,SSW,213,7.3,21.9,64,0.00,CLR,,0.00,WeatherDisplay:10.37,2013-01-09 18:53:00,
2013-01-09 12:58:00,37.9,27.2,30.22,WSW,250,10.4,19.6,65,0.00,CLR,,0.00,WeatherDisplay:10.37,2013-01-09 18:58:00,
2013-01-09 13:03:00,38.0,27.3,30.23,SSW,209,7.3,15.0,65,0.00,CLR,,0.00,WeatherDisplay:10.37,2013-01-09 19:03:00,
2013-01-09 13:08:00,37.5,26.8,30.23,South,176,6.7,10.9,65,0.00,CLR,,0.00,WeatherDisplay:10.37,2013-01-09 19:08:00,
2013-01-09 13:13:00,37.4,26.7,30.23,WSW,237,7.6,19.6,65,0.00,CLR,,0.00,WeatherDisplay:10.37,2013-01-09 19:13:00,
2013-01-09 13:18:00,37.1,26.4,30.24,SW,223,12.3,19.6,65,0.00,CLR,,0.00,WeatherDisplay:10.37,2013-01-09 19:18:00,
2013-01-09 13:23:00,37.1,26.0,30.24,SW,229,15.6,23.1,64,0.00,CLR,,0.00,WeatherDisplay:10.37,2013-01-09 19:23:00,
2013-01-09 13:28:00,36.9,26.2,30.24,WSW,241,14.5,28.8,65,0.00,CLR,,0.00,WeatherDisplay:10.37,2013-01-09 19:28:00,
2013-01-09 13:33:00,36.8,26.1,30.24,NW,304,11.4,19.6,65,0.00,CLR,,0.00,WeatherDisplay:10.37,2013-01-09 19:33:00,
2013-01-09 13:38:00,37.0,26.7,30.24,SSW,213,10.6,15.0,66,0.00,CLR,,0.00,WeatherDisplay:10.37,2013-01-09 19:38:00,
2013-01-09 13:43:00,37.1,26.4,30.24,SSW,210,10.1,18.4,65,0.00,CLR,,0.00,WeatherDisplay:10.37,2013-01-09 19:43:00,
2013-01-09 13:48:00,37.1,26.8,30.25,South,178,12.4,17.3,66,0.00,CLR,,0.00,WeatherDisplay:10.37,2013-01-09 19:48:00,
2013-01-09 13:53:00,37.4,26.7,30.25,SW,233,8.0,15.0,65,0.00,CLR,,0.00,WeatherDisplay:10.37,2013-01-09 19:53:00,
2013-01-09 13:58:00,37.6,26.5,30.26,West,274,8.2,11.5,64,0.00,CLR,,0.00,WeatherDisplay:10.37,2013-01-09 19:58:00,
2013-01-09 14:03:00,37.8,26.3,30.26,South,184,7.7,16.1,63,0.00,CLR,,0.00,WeatherDisplay:10.37,2013-01-09 20:03:00,
2013-01-09 14:08:00,37.8,26.3,30.26,SSW,209,10.4,12.7,63,0.00,CLR,,0.00,WeatherDisplay:10.37,2013-01-09 20:08:00,
2013-01-09 14:13:00,37.9,27.2,30.27,WSW,239,6.2,10.4,65,0.00,CLR,,0.00,WeatherDisplay:10.37,2013-01-09 20:13:00,
2013-01-09 14:18:00,37.2,26.5,30.27,West,272,9.4,15.0,65,0.00,CLR,,0.00,WeatherDisplay:10.37,2013-01-09 20:18:00,
2013-01-09 14:23:00,37.7,27.0,30.27,SW,234,5.0,13.8,65,0.00,CLR,,0.00,WeatherDisplay:10.37,2013-01-09 20:23:00,
2013-01-09 14:28:00,37.4,27.1,30.27,SSW,193,7.7,17.4,66,0.00,CLR,,0.00,WeatherDisplay:10.37,2013-01-09 20:28:00,
2013-01-09 14:33:00,37.1,26.4,30.27,SSW,195,11.7,21.9,65,0.00,CLR,,0.00,WeatherDisplay:10.37,2013-01-09 20:33:00,
2013-01-09 14:38:00,37.2,26.9,30.28,SSW,196,9.6,18.5,66,0.00,CLR,,0.00,WeatherDisplay:10.37,2013-01-09 20:38:00,
2013-01-09 14:43:00,37.3,27.0,30.28,SW,230,6.0,13.4,66,0.00,CLR,,0.00,WeatherDisplay:10.37,2013-01-09 20:43:00,
2013-01-09 14:48:00,37.1,27.2,30.29,SW,233,6.7,7.1,67,0.00,CLR,,0.00,WeatherDisplay:10.37,2013-01-09 20:48:00,
2013-01-09 14:53:00,37.1,26.8,30.30,WSW,247,8.0,12.7,66,0.00,CLR,,0.00,WeatherDisplay:10.37,2013-01-09 20:53:00,
2013-01-09 14:58:00,37.2,27.2,30.30,West,260,6.2,11.5,67,0.00,CLR,,0.00,WeatherDisplay:10.37,2013-01-09 20:58:00,
2013-01-09 15:03:00,37.2,27.2,30.30,WNW,282,6.8,15.0,67,0.00,CLR,,0.00,WeatherDisplay:10.37,2013-01-09 21:03:00,
2013-01-09 15:08:00,37.3,27.0,30.31,WSW,247,4.9,8.5,66,0.00,CLR,,0.00,WeatherDisplay:10.37,2013-01-09 21:08:00,
2013-01-09 15:13:00,37.5,26.4,30.31,SW,230,7.2,11.5,64,0.00,CLR,,0.00,WeatherDisplay:10.37,2013-01-09 21:13:00,
2013-01-09 15:18:00,37.9,26.8,30.32,SW,230,3.3,8.1,64,0.00,CLR,,0.00,WeatherDisplay:10.37,2013-01-09 21:18:00,
2013-01-09 15:23:00,38.1,26.6,30.31,WSW,243,4.4,6.9,63,0.00,CLR,,0.00,WeatherDisplay:10.37,2013-01-09 21:23:00,
2013-01-09 15:28:00,38.3,26.8,30.31,West,271,4.8,9.2,63,0.00,CLR,,0.00,WeatherDisplay:10.37,2013-01-09 21:28:00,
2013-01-09 15:33:00,38.2,26.3,30.31,SW,234,5.3,9.2,62,0.00,CLR,,0.00,WeatherDisplay:10.37,2013-01-09 21:33:00,
2013-01-09 15:38:00,38.0,25.7,30.31,SW,229,5.4,13.8,61,0.00,CLR,,0.00,WeatherDisplay:10.37,2013-01-09 21:38:00,
2013-01-09 15:43:00,37.7,25.5,30.31,WNW,282,5.3,10.4,61,0.00,CLR,,0.00,WeatherDisplay:10.37,2013-01-09 21:43:00,
2013-01-09 15:48:00,38.0,24.9,30.30,NW,316,10.1,13.8,59,0.00,CLR,,0.00,WeatherDisplay:10.37,2013-01-09 21:48:00,
2013-01-09 15:53:00,37.6,24.6,30.30,WSW,257,7.1,10.4,59,0.00,CLR,,0.00,WeatherDisplay:10.37,2013-01-09 21:53:00,
2013-01-09 15:58:00,37.8,24.7,30.31,West,272,6.8,16.1,59,0.00,CLR,,0.00,WeatherDisplay:10.37,2013-01-09 21:58:00,
2013-01-09 16:03:00,37.6,24.1,30.31,WNW,282,10.1,16.1,58,0.00,CLR,,0.00,WeatherDisplay:10.37,2013-01-09 22:03:00,
2013-01-09 16:08:00,37.5,24.5,30.32,SSW,206,6.7,12.7,59,0.00,CLR,,0.00,WeatherDisplay:10.37,2013-01-09 22:08:00,
2013-01-09 16:13:00,37.3,24.7,30.32,SW,216,5.3,10.4,60,0.00,CLR,,0.00,WeatherDisplay:10.37,2013-01-09 22:13:00,
2013-01-09 16:18:00,37.0,24.4,30.32,WSW,247,5.3,13.8,60,0.00,CLR,,0.00,WeatherDisplay:10.37,2013-01-09 22:18:00,
2013-01-09 16:23:00,36.8,24.6,30.33,WNW,302,4.1,9.2,61,0.00,CLR,,0.00,WeatherDisplay:10.37,2013-01-09 22:23:00,
2013-01-09 16:28:00,36.7,24.1,30.33,West,268,7.5,11.5,60,0.00,CLR,,0.00,WeatherDisplay:10.37,2013-01-09 22:28:00,
2013-01-09 16:33:00,36.7,24.5,30.33,SW,229,5.2,10.4,61,0.00,CLR,,0.00,WeatherDisplay:10.37,2013-01-09 22:33:00,
2013-01-09 16:38:00,36.6,24.4,30.33,West,260,4.3,9.2,61,0.00,CLR,,0.00,WeatherDisplay:10.37,2013-01-09 22:38:00,
2013-01-09 16:43:00,36.3,23.7,30.33,NW,319,7.3,8.1,60,0.00,CLR,,0.00,WeatherDisplay:10.37,2013-01-09 22:43:00,
2013-01-09 16:48:00,36.2,24.0,30.33,WSW,250,7.1,9.2,61,0.00,CLR,,0.00,WeatherDisplay:10.37,2013-01-09 22:48:00,
2013-01-09 16:53:00,36.1,23.9,30.33,SW,217,3.8,6.9,61,0.00,CLR,,0.00,WeatherDisplay:10.37,2013-01-09 22:53:00,
2013-01-09 16:58:00,36.0,23.8,30.33,WNW,301,3.1,4.6,61,0.00,CLR,,0.00,WeatherDisplay:10.37,2013-01-09 22:58:00,
2013-01-09 17:03:00,35.7,23.6,30.33,West,281,4.1,6.9,61,0.00,CLR,,0.00,WeatherDisplay:10.37,2013-01-09 23:03:00,
2013-01-09 17:08:00,35.7,23.6,30.33,WNW,296,6.4,11.5,61,0.00,CLR,,0.00,WeatherDisplay:10.37,2013-01-09 23:08:00,
2013-01-09 17:13:00,35.5,23.8,30.34,WSW,254,6.0,12.7,62,0.00,CLR,,0.00,WeatherDisplay:10.37,2013-01-09 23:13:00,
2013-01-09 17:18:00,35.3,23.6,30.34,WNW,299,5.9,10.4,62,0.00,CLR,,0.00,WeatherDisplay:10.37,2013-01-09 23:18:00,
2013-01-09 17:23:00,35.0,23.7,30.34,West,270,6.1,9.8,63,0.00,CLR,,0.00,WeatherDisplay:10.37,2013-01-09 23:23:00,
2013-01-09 17:28:00,35.0,23.7,30.34,West,270,6.7,11.5,63,0.00,CLR,,0.00,WeatherDisplay:10.37,2013-01-09 23:28:00,
2013-01-09 17:33:00,34.9,23.9,30.34,WNW,291,6.4,9.2,64,0.00,CLR,,0.00,WeatherDisplay:10.37,2013-01-09 23:33:00,
2013-01-09 17:38:00,34.9,23.9,30.35,WNW,302,4.9,10.4,64,0.00,CLR,,0.00,WeatherDisplay:10.37,2013-01-09 23:38:00,
2013-01-09 17:43:00,34.7,23.8,30.35,West,278,5.3,9.2,64,0.00,CLR,,0.00,WeatherDisplay:10.37,2013-01-09 23:43:00,
2013-01-09 17:48:00,34.8,24.2,30.35,WNW,285,5.5,9.2,65,0.00,CLR,,0.00,WeatherDisplay:10.37,2013-01-09 23:48:00,
2013-01-09 17:53:00,34.7,24.1,30.35,West,278,3.8,8.1,65,0.00,CLR,,0.00,WeatherDisplay:10.37,2013-01-09 23:53:00,
2013-01-09 17:58:00,34.4,24.2,30.35,NW,308,3.6,6.9,66,0.00,CLR,,0.00,WeatherDisplay:10.37,2013-01-09 23:58:00,
2013-01-09 18:03:00,34.3,24.1,30.35,West,267,1.1,3.7,66,0.00,CLR,,0.00,WeatherDisplay:10.37,2013-01-10 00:03:00,
2013-01-09 18:08:00,34.2,24.0,30.35,WNW,298,2.3,5.8,66,0.00,CLR,,0.00,WeatherDisplay:10.37,2013-01-10 00:08:00,
2013-01-09 18:13:00,34.0,23.8,30.35,West,261,1.2,4.6,66,0.00,CLR,,0.00,WeatherDisplay:10.37,2013-01-10 00:13:00,
2013-01-09 18:18:00,33.9,23.7,30.35,NW,309,4.4,8.1,66,0.00,CLR,,0.00,WeatherDisplay:10.37,2013-01-10 00:18:00,
2013-01-09 18:23:00,33.9,24.1,30.36,WSW,258,3.1,8.1,67,0.00,CLR,,0.00,WeatherDisplay:10.37,2013-01-10 00:23:00,
2013-01-09 18:28:00,33.9,24.1,30.36,WSW,254,2.5,4.6,67,0.00,CLR,,0.00,WeatherDisplay:10.37,2013-01-10 00:28:00,
2013-01-09 18:33:00,33.6,24.2,30.36,West,280,1.4,4.3,68,0.00,CLR,,0.00,WeatherDisplay:10.37,2013-01-10 00:33:00,
2013-01-09 18:38:00,33.7,24.3,30.36,SW,222,0.4,1.1,68,0.00,CLR,,0.00,WeatherDisplay:10.37,2013-01-10 00:38:00,
2013-01-09 18:43:00,33.6,24.2,30.37,SW,227,2.9,4.6,68,0.00,CLR,,0.00,WeatherDisplay:10.37,2013-01-10 00:43:00,
2013-01-09 18:48:00,33.6,24.2,30.37,West,280,1.1,4.6,68,0.00,CLR,,0.00,WeatherDisplay:10.37,2013-01-10 00:48:00,
2013-01-09 18:53:00,33.3,23.9,30.38,West,280,0.0,0.0,68,0.00,CLR,,0.00,WeatherDisplay:10.37,2013-01-10 00:53:00,
2013-01-09 18:58:00,32.9,23.8,30.38,South,184,0.0,0.0,69,0.00,CLR,,0.00,WeatherDisplay:10.37,2013-01-10 00:58:00,
2013-01-09 19:03:00,32.6,23.9,30.38,South,184,0.0,0.0,70,0.00,CLR,,0.00,WeatherDisplay:10.37,2013-01-10 01:03:00,
2013-01-09 19:08:00,32.2,23.8,30.38,SW,230,0.0,0.0,71,0.00,CLR,,0.00,WeatherDisplay:10.37,2013-01-10 01:08:00,
2013-01-09 19:13:00,31.7,23.7,30.38,SW,230,0.0,0.0,72,0.00,CLR,,0.00,WeatherDisplay:10.37,2013-01-10 01:13:00,
2013-01-09 19:18:00,31.4,23.4,30.39,SSW,202,1.0,3.5,72,0.00,CLR,,0.00,WeatherDisplay:10.37,2013-01-10 01:18:00,
2013-01-09 19:23:00,31.4,23.7,30.38,SSW,202,0.0,0.0,73,0.00,CLR,,0.00,WeatherDisplay:10.37,2013-01-10 01:23:00,
2013-01-09 19:28:00,31.2,23.5,30.39,WSW,253,0.0,0.0,73,0.00,CLR,,0.00,WeatherDisplay:10.37,2013-01-10 01:28:00,
2013-01-09 19:33:00,30.9,23.3,30.39,WSW,253,0.0,0.0,73,0.00,CLR,,0.00,WeatherDisplay:10.37,2013-01-10 01:33:00,
2013-01-09 19:38:00,30.1,23.1,30.39,South,191,0.0,0.0,75,0.00,CLR,,0.00,WeatherDisplay:10.37,2013-01-10 01:38:00,
2013-01-09 19:43:00,30.0,23.4,30.39,South,191,0.0,0.0,76,0.00,CLR,,0.00,WeatherDisplay:10.37,2013-01-10 01:43:00,
2013-01-09 19:48:00,30.2,23.5,30.39,South,191,0.0,0.0,76,0.00,CLR,,0.00,WeatherDisplay:10.37,2013-01-10 01:48:00,
2013-01-09 19:53:00,30.4,23.7,30.39,South,191,0.0,0.0,76,0.00,CLR,,0.00,WeatherDisplay:10.37,2013-01-10 01:53:00,
2013-01-09 19:58:00,30.6,23.6,30.39,South,191,0.0,0.0,75,0.00,CLR,,0.00,WeatherDisplay:10.37,2013-01-10 01:58:00,
2013-01-09 20:03:00,30.3,23.3,30.40,South,191,0.0,0.0,75,0.00,CLR,,0.00,WeatherDisplay:10.37,2013-01-10 02:03:00,
2013-01-09 20:08:00,30.0,23.4,30.39,South,191,0.0,0.0,76,0.00,CLR,,0.00,WeatherDisplay:10.37,2013-01-10 02:08:00,
2013-01-09 20:13:00,29.9,23.6,30.40,South,191,0.0,0.0,77,0.00,CLR,,0.00,WeatherDisplay:10.37,2013-01-10 02:13:00,
2013-01-09 20:18:00,29.9,23.6,30.40,South,191,0.0,0.0,77,0.00,CLR,,0.00,WeatherDisplay:10.37,2013-01-10 02:18:00,
2013-01-09 20:23:00,29.6,23.0,30.40,South,191,0.0,0.0,76,0.00,CLR,,0.00,WeatherDisplay:10.37,2013-01-10 02:23:00,
2013-01-09 20:28:00,29.2,23.2,30.40,South,191,0.0,0.0,78,0.00,CLR,,0.00,WeatherDisplay:10.37,2013-01-10 02:28:00,
2013-01-09 20:33:00,29.1,23.4,30.40,South,191,0.0,0.0,79,0.00,CLR,,0.00,WeatherDisplay:10.37,2013-01-10 02:33:00,
2013-01-09 20:38:00,29.3,23.3,30.39,South,191,0.0,0.0,78,0.00,CLR,,0.00,WeatherDisplay:10.37,2013-01-10 02:38:00,
2013-01-09 20:43:00,29.1,23.4,30.39,South,191,0.0,0.0,79,0.00,CLR,,0.00,WeatherDisplay:10.37,2013-01-10 02:43:00,
2013-01-09 20:48:00,28.8,23.1,30.39,South,191,0.0,0.0,79,0.00,CLR,,0.00,WeatherDisplay:10.37,2013-01-10 02:48:00,
2013-01-09 20:53:00,28.3,22.6,30.38,South,191,0.0,0.0,79,0.00,CLR,,0.00,WeatherDisplay:10.37,2013-01-10 02:53:00,
2013-01-09 20:58:00,27.8,22.4,30.39,South,191,0.0,0.0,80,0.00,CLR,,0.00,WeatherDisplay:10.37,2013-01-10 02:58:00,
2013-01-09 21:03:00,27.2,21.8,30.39,South,191,0.0,0.0,80,0.00,CLR,,0.00,WeatherDisplay:10.37,2013-01-10 03:03:00,
2013-01-09 21:08:00,26.7,21.9,30.39,South,191,0.0,0.0,82,0.00,CLR,,0.00,WeatherDisplay:10.37,2013-01-10 03:08:00,
2013-01-09 21:13:00,26.4,21.9,30.39,South,191,0.0,0.0,83,0.00,CLR,,0.00,WeatherDisplay:10.37,2013-01-10 03:13:00,
2013-01-09 21:18:00,26.2,21.7,30.39,South,191,0.0,0.0,83,0.00,CLR,,0.00,WeatherDisplay:10.37,2013-01-10 03:18:00,
2013-01-09 21:23:00,25.9,21.7,30.38,South,191,0.0,0.0,84,0.00,CLR,,0.00,WeatherDisplay:10.37,2013-01-10 03:23:00,
2013-01-09 21:28:00,26.1,22.2,30.38,South,191,0.0,0.0,85,0.00,CLR,,0.00,WeatherDisplay:10.37,2013-01-10 03:28:00,
2013-01-09 21:33:00,26.6,23.0,30.38,South,191,0.0,0.0,86,0.00,CLR,,0.00,WeatherDisplay:10.37,2013-01-10 03:33:00,
2013-01-09 21:38:00,27.1,23.5,30.38,South,191,0.0,0.0,86,0.00,CLR,,0.00,WeatherDisplay:10.37,2013-01-10 03:38:00,
2013-01-09 21:43:00,27.5,23.9,30.38,South,191,0.0,0.0,86,0.00,CLR,,0.00,WeatherDisplay:10.37,2013-01-10 03:43:00,
2013-01-09 21:48:00,27.8,23.9,30.38,South,191,0.0,0.0,85,0.00,CLR,,0.00,WeatherDisplay:10.37,2013-01-10 03:48:00,
2013-01-09 21:53:00,27.8,23.9,30.38,West,270,1.5,1.5,85,0.00,CLR,,0.00,WeatherDisplay:10.37,2013-01-10 03:53:00,
2013-01-09 21:58:00,27.9,24.0,30.37,SW,230,0.0,0.0,85,0.00,CLR,,0.00,WeatherDisplay:10.37,2013-01-10 03:58:00,
2013-01-09 22:03:00,27.8,23.9,30.37,SW,230,0.0,0.0,85,0.00,CLR,,0.00,WeatherDisplay:10.37,2013-01-10 04:03:00,
2013-01-09 22:08:00,27.4,23.5,30.37,SW,230,0.0,0.0,85,0.00,CLR,,0.00,WeatherDisplay:10.37,2013-01-10 04:08:00,
2013-01-09 22:13:00,27.2,23.3,30.36,SW,230,0.0,0.0,85,0.00,CLR,,0.00,WeatherDisplay:10.37,2013-01-10 04:13:00,
2013-01-09 22:18:00,26.8,22.9,30.37,SW,230,0.0,0.0,85,0.00,CLR,,0.00,WeatherDisplay:10.37,2013-01-10 04:18:00,
2013-01-09 22:23:00,26.4,22.5,30.37,SW,230,0.0,0.0,85,0.00,CLR,,0.00,WeatherDisplay:10.37,2013-01-10 04:23:00,
2013-01-09 22:28:00,26.0,22.4,30.37,SW,230,0.0,0.0,86,0.00,CLR,,0.00,WeatherDisplay:10.37,2013-01-10 04:28:00,
2013-01-09 22:33:00,25.8,22.7,30.37,SW,215,1.6,3.7,88,0.00,CLR,,0.00,WeatherDisplay:10.37,2013-01-10 04:33:00,
2013-01-09 22:38:00,26.8,24.3,30.37,WSW,254,2.5,3.5,90,0.00,CLR,,0.00,WeatherDisplay:10.37,2013-01-10 04:38:00,
2013-01-09 22:43:00,27.5,24.4,30.38,SSW,208,4.3,5.8,88,0.00,CLR,,0.00,WeatherDisplay:10.37,2013-01-10 04:43:00,
2013-01-09 22:48:00,27.8,24.2,30.38,SW,220,1.9,4.6,86,0.00,CLR,,0.00,WeatherDisplay:10.37,2013-01-10 04:48:00,
2013-01-09 22:53:00,27.6,24.0,30.39,SSW,205,4.3,7.6,86,0.00,CLR,,0.00,WeatherDisplay:10.37,2013-01-10 04:53:00,
2013-01-09 22:58:00,27.3,23.9,30.39,SW,236,4.5,5.8,87,0.00,CLR,,0.00,WeatherDisplay:10.37,2013-01-10 04:58:00,
2013-01-09 23:00:00,27.3,23.9,30.39,SSE,155,5.0,8.1,87,0.00,CLR,,0.00,WeatherDisplay:10.37,2013-01-10 05:00:00,
2013-01-09 23:01:00,27.4,24.0,30.40,SSW,209,5.8,8.1,87,0.00,CLR,,0.00,WeatherDisplay:10.37,2013-01-10 05:01:00,
2013-01-09 23:06:00,27.4,24.0,30.40,South,174,5.3,6.9,87,0.00,CLR,,0.00,WeatherDisplay:10.37,2013-01-10 05:06:00,
2013-01-09 23:11:00,27.3,23.9,30.40,SW,227,4.4,7.3,87,0.00,CLR,,0.00,WeatherDisplay:10.37,2013-01-10 05:11:00,
2013-01-09 23:16:00,27.3,23.9,30.40,SSW,196,2.3,3.5,87,0.00,CLR,,0.00,WeatherDisplay:10.37,2013-01-10 05:16:00,
2013-01-09 23:21:00,27.5,24.1,30.40,SW,220,1.8,3.5,87,0.00,CLR,,0.00,WeatherDisplay:10.37,2013-01-10 05:21:00,
2013-01-09 23:26:00,27.6,24.2,30.40,SSW,193,0.2,4.6,87,0.00,CLR,,0.00,WeatherDisplay:10.37,2013-01-10 05:26:00,
2013-01-09 23:31:00,27.7,24.3,30.41,West,265,2.6,3.5,87,0.00,CLR,,0.00,WeatherDisplay:10.37,2013-01-10 05:31:00,
2013-01-09 23:36:00,28.0,24.4,30.41,SSW,202,5.4,7.1,86,0.00,CLR,,0.00,WeatherDisplay:10.37,2013-01-10 05:36:00,
2013-01-09 23:41:00,27.9,24.0,30.42,SW,220,4.4,5.8,85,0.00,CLR,,0.00,WeatherDisplay:10.37,2013-01-10 05:41:00,
2013-01-09 23:46:00,27.7,24.1,30.42,SSW,200,6.3,9.2,86,0.00,CLR,,0.00,WeatherDisplay:10.37,2013-01-10 05:46:00,
2013-01-09 23:51:00,27.6,24.0,30.42,SW,226,5.1,6.9,86,0.00,CLR,,0.00,WeatherDisplay:10.37,2013-01-10 05:51:00,
2013-01-09 23:56:00,27.4,23.8,30.42,SSW,208,5.1,6.9,86,0.00,CLR,,0.00,WeatherDisplay:10.37,2013-01-10 05:56:00,